Location: Chełm
(51.1339°N, 23.4725°E)
Time: 04:55:35
(UTC+01:00)

ISS - Visible Passes

Search period start: 24 November 2017 00:00
Search period end: 04 December 2017 00:00
Orbit: 402 x 407 km, 51.6° (Epoch: 24 November)

Date Brightness Start Highest point End Pass type
(mag) Time Alt. Az. Time Alt. Az. Time Alt. Az.
28 Nov -0.9 18:17:25 10° SW 18:17:50 13° SSW 18:17:50 13° SSW visible
29 Nov -2.1 17:25:35 10° SSW 17:27:45 22° SSE 17:27:45 22° SSE visible
30 Nov -1.6 16:34:08 10° S 16:36:03 15° SE 16:37:36 11° ESE visible
30 Nov -1.6 18:08:47 10° WSW 18:10:15 24° SW 18:10:15 24° SW visible
01 Dec -3.1 17:16:37 10° SW 17:19:41 38° SSE 17:20:01 37° SE visible
02 Dec -2.3 16:24:38 10° SSW 16:27:25 26° SSE 16:29:44 13° E visible
02 Dec -2.3 18:00:20 10° WSW 18:02:23 35° WSW 18:02:23 35° WSW visible
03 Dec -3.7 17:07:59 10° WSW 17:11:13 61° SSE 17:12:04 42° E visible
03 Dec -0.4 18:44:24 10° W 18:44:42 12° W 18:44:42 12° W visible
